Hourly Data Report for July 21, 2021

CLYDE RIVER A
NUNAVUT
Current Station Operator: NAVCAN

70°29'09.000" N
68°31'01.000" W
26.50 m
2400804
71090
YCY

Download Data

Hourly Data (July 2021)
Hourly Data Report for July 21, 2021
TIME
LST
Temp Definition
°C
Dew Point Definition
°C
Rel Hum Definition
%
Precip. Amount Definition
mm

Wind Dir Definition
10's deg

Wind Spd Definition
km/h
Visibility Definition
km
Stn Press Definition
kPa
Hmdx Definition


Wind Chill Definition


Weather Definition


00:00 2.0 1.3 95 0.0 33 26 16.1 99.89     Rain
01:00 1.9 1.0 94 0.0 32 28 16.1 99.92     LegendNANA
02:00 2.1 1.1 93 0.0 32 21 16.1 99.95     LegendNANA
03:00 2.0 1.1 94 0.0 31 18 16.1 99.99     Rain
04:00 2.1 1.1 93 0.0 31 22 16.1 99.99     LegendNANA
05:00 2.7 1.2 90 0.0 31 21 16.1 100.00     LegendNANA
06:00 3.3 1.9 91 0.0 32 15 16.1 100.00     LegendNANA
07:00 3.9 1.4 84 0.0 32 22 16.1 99.99     LegendNANA
08:00 4.6 2.0 83 0.0 33 17 16.1 99.98     LegendNANA
09:00 5.3 1.8 78 0.0 32 17 16.1 99.95     LegendNANA
10:00 5.6 2.0 78 0.0 33 17 16.1 99.92     LegendNANA
11:00 5.6 2.0 78 0.0 1 8 16.1 99.87     LegendNANA
12:00 5.0 2.1 81 0.0 13 13 16.1 99.86     LegendNANA
13:00 4.3 2.4 87 0.0 12 15 16.1 99.83     LegendNANA
14:00 3.6 1.9 89 0.0 11 11 16.1 99.81     LegendNANA
15:00 3.6 2.1 90 0.0 13 13 16.1 99.78     LegendNANA
16:00 3.8 1.7 86 0.0 14 15 16.1 99.75     LegendNANA
17:00 4.3 1.7 83 0.0 14 17 16.1 99.70     LegendNANA
18:00 4.4 1.9 84 0.0 14 17 16.1 99.68     LegendNANA
19:00 4.6 2.2 84 0.0 18 8 16.1 99.71     Rain
20:00 4.2 3.0 92 0.0 LegendMM 4 16.1 99.72     Rain
21:00 3.9 2.9 93 0.0   0 16.1 99.71     Rain
22:00 3.7 3.1 96 0.0 9 5 16.1 99.70     Rain
23:00 3.2 2.9 98 0.0 11 4 16.1 99.69     Rain

Notes on Data Quality.

Legend

  • E = Estimated
  • M = Missing
  • NA = Not Available*
  • [empty] = Indicates an unobserved value
Date modified: